Regional Weather Roundup
Issued by NWS

Home | Current Version | Previous Version | Graphics & Text | Print | Product List | Glossary On
Versions: 1 2 3 4 5 6 7 8 9 10 11 12 13 14 15 16 17 18 19 20 21 22 23 24 25 26 27 28 29 30 31 32 33 34 35 36 37 38 39 40 41 42 43 44 45 46 47 48 49 50
991
ASUS44 KJAN 170710
RWRMS

MISSISSIPPI HOURLY WEATHER ROUNDUP
NATIONAL WEATHER SERVICE JACKSON MS
200 AM CDT WED SEP 17 2014

NOTE: "FAIR: INDICATES FEW OR NO CLOUDS BELOW 12,000 FEET WITH NO
SIGNIFICANT WEATHER AND/OR OBSTRUCTIONS TO VISIBILITY.

MSZ001>002-007>008-010>013-018>021-025>028-034>036-170800-
NORTHWEST MISSISSIPPI

CITY           SKY/WX    TMP DP  RH WIND       PRES   REMARKS
CLARKSDALE       N/A     66  66 100 CALM      30.04S
CLEVELAND      FAIR      69  68  98 CALM      30.02S
GREENWOOD      MOCLDY    71  68  90 N3        30.01F
GREENVILLE     PTCLDY    71  67  87 NE3       30.01F
GRENADA        FAIR      68  64  88 CALM      30.02F
OLIVE BRANCH   CLEAR     63  63 100 CALM      30.05S
OXFORD         FAIR      64  63  94 NE5       30.05F
TUNICA         SUNNY     63  63 100 N5        30.04F FOG
$$

MSZ003>006-009-014>017-022>024-029>033-037>039-170800-
NORTHEAST MISSISSIPPI

CITY           SKY/WX    TMP DP  RH WIND       PRES   REMARKS
COLUMBUS AFB   CLEAR     69  68  97 N3        30.01F
CORINTH        FAIR      63  61  94 N3        30.04F
GOLDN TRIANGLE CLEAR     70  64  83 N6        30.01F
STARKVILLE     FAIR      70  66  88 CALM      30.01F
TUPELO         CLEAR     66  63  90 NE7       30.02F
$$

MSZ040-058-170800-
CENTRAL MISSISSIPPI

CITY           SKY/WX    TMP DP  RH WIND       PRES   REMARKS
JACKSON INTL   CLEAR     72  69  90 N3        30.00F
JACKSON HAWKNS CLEAR     74  69  85 NW6       30.00F
MERIDIAN KEY   CLEAR     70  68  93 CALM      30.00F
MERIDIAN NAS   CLEAR     72  68  87 W8        30.00F
RAYMOND        FAIR      72  66  83 CALM      30.00F
VICKSBURG      PTCLDY    71  69  93 CALM      29.99F
$$

MSZ059>079-170800-
SOUTH MISSISSIPPI

CITY           SKY/WX    TMP DP  RH WIND       PRES   REMARKS
BROOKHAVEN     FAIR      72  70  94 CALM      30.01F FOG
HATTIESBURG    PTCLDY    71  70  96 W3        29.98F FOG
MCCOMB         FOG       72  71  97 CALM      30.00F VSB 1/2
NATCHEZ        PTCLDY    72  70  94 CALM      30.00F
PINE BELT      PTCLDY   N/A N/A N/A CALM      29.99F
$$

MSZ080>082-170800-
COASTAL MISSISSIPPI

CITY           SKY/WX    TMP DP  RH WIND       PRES   REMARKS
BILOXI         CLOUDY    74  71  91 VRB2      29.96F
PASCAGOULA     CLOUDY    73  72  96 CALM      29.96F
GULFPORT       CLOUDY    73  71  93 CALM      29.96S
$$



USA.gov is the U.S. government's official web portal to all federal, state and local government web resources and services.